Estación meteorológica de Mataró (Maresme, Maresme)

Consulta los datos en tiempo real de la estación meteorológica de Mataró





Hora UTC 07:45
Temperatura 27.5 ºC
Suelo 15 cm 34.3 ºC
Humedad 68.8 %
Presión 1019.4 hPa
Pluja 0.0 mm
Velocidad viento 4.8 km/h
Dirección viento SE
Radiación solar 356.9 W/m²

Webcam

Datos diarios 2026-09-04



Hora UTC (invierno +1h; verano +2h)
Temperatura (ºC) Humedad (%) Presión (hPa) Velocidad viento (km/h) Precipitación (mm) Radiación solar (W/m²)
Hora UTC Aire Suelo 15 cm Humedad Presión Vel. Dir. Vel. Max Dir. Intent. máx 5 min. Rad. Sol.
00:05 25.3 24.6 77.9 1020.4 17.8 NNW 17.8 NNW 0.0 0.1
00:10 25.4 24.7 77.6 1020.3 18.3 NNW 27.2 NW 0.0 0.1
00:15 25.4 24.7 77.3 1020.2 16.6 NNW 26.1 NNW 0.0 0.1
00:20 25.5 24.8 75.8 1020.3 15.5 NNW 22.2 NW 0.0 0.1
00:25 25.6 24.8 75.4 1020.3 14.3 NNW 25.8 NNW 0.0 0.1
00:30 25.6 24.8 75.1 1020.2 14.2 NNW 21.9 NNW 0.0 0.1
00:35 25.6 24.9 74.7 1020.2 10.5 NNW 18.0 NW 0.0 0.1
00:40 25.6 24.9 74.9 1020.1 12.1 NNW 21.2 NNW 0.0 0.1
00:45 25.6 24.8 74.9 1020.2 12.8 NNW 21.5 NNW 0.0 0.1
00:50 25.6 24.8 75.0 1020.2 14.3 NNW 23.6 NW 0.0 0.1
00:55 25.6 24.8 75.1 1020.1 13.2 NNW 22.9 N 0.0 0.1
01:00 25.7 24.9 74.1 1019.9 15.8 NNW 24.0 N 0.0 0.1
01:05 25.8 24.9 72.5 1019.8 14.6 NNW 24.7 NW 0.0 0.1
01:10 25.9 25.0 71.6 1019.9 12.8 NW 23.3 NNW 0.0 0.1
01:15 25.9 25.0 71.4 1019.8 10.7 NNW 19.4 NNW 0.0 0.1
01:20 25.9 25.0 69.5 1019.9 5.5 NE 13.4 N 0.0 0.1
01:25 25.9 25.0 69.6 1019.9 3.4 NW 11.3 NNW 0.0 0.1
01:30 25.9 24.9 70.6 1019.8 6.7 WNW 11.6 WNW 0.0 0.1
01:35 25.7 24.7 71.1 1019.8 5.1 N 9.2 NNE 0.0 0.1
01:40 25.6 24.5 71.7 1019.9 1.6 NNW 7.4 N 0.0 0.1
01:45 25.5 24.3 72.8 1019.9 5.5 NW 12.7 NNW 0.0 0.1
01:50 25.4 24.1 73.0 1019.8 4.6 N 10.6 N 0.0 0.1
01:55 25.4 24.1 73.0 1019.7 5.9 NNW 9.5 NNW 0.0 0.1
02:00 25.3 24.1 73.4 1019.7 5.6 N 12.0 N 0.0 0.1
02:05 25.3 24.2 74.2 1019.7 2.2 WNW 7.1 NNW 0.0 0.1
02:10 25.2 24.1 75.4 1019.7 3.6 NW 12.4 NW 0.0 0.1
02:15 25.2 24.0 76.7 1019.7 8.6 NW 19.4 NW 0.0 0.1
02:20 25.2 24.0 76.3 1019.6 8.4 NW 15.9 NW 0.0 0.1
02:25 25.2 24.1 75.6 1019.6 9.1 NW 18.0 NNW 0.0 0.1
02:30 25.4 24.2 73.9 1019.7 6.7 N 14.8 NW 0.0 0.1
02:35 25.4 24.3 74.3 1019.6 10.8 NNW 19.8 NNW 0.0 0.1
02:40 25.4 24.4 74.8 1019.5 14.2 NNW 20.5 NNW 0.0 0.1
02:45 25.3 24.4 75.2 1019.5 13.4 NNW 19.8 NNW 0.0 0.1
02:50 25.3 24.4 74.3 1019.4 13.9 NNW 20.5 NNW 0.0 0.1
02:55 25.3 24.4 73.0 1019.4 10.1 NW 16.2 NNW 0.0 0.1
03:00 25.4 24.4 72.0 1019.4 7.9 NNW 12.7 NNW 0.0 0.1
03:05 25.4 24.4 71.8 1019.4 7.9 NW 12.7 NW 0.0 0.1
03:10 25.4 24.3 70.4 1019.3 8.2 NNW 12.7 NNW 0.0 0.1
03:15 25.5 24.4 69.8 1019.2 9.1 NNW 14.5 NW 0.0 0.1
03:20 25.4 24.4 70.0 1019.2 6.6 NW 10.9 NW 0.0 0.1
03:25 25.4 24.3 69.6 1019.3 9.7 NNW 13.4 NNW 0.0 0.1
03:30 25.6 24.4 67.7 1019.2 7.6 N 12.7 NNE 0.0 0.1
03:35 25.6 24.5 67.4 1019.1 3.0 NNW 8.1 N 0.0 0.1
03:40 25.5 24.4 67.7 1019.1 1.3 W 3.9 WNW 0.0 0.1
03:45 25.3 24.2 68.6 1019.1 2.6 SSE 5.3 WNW 0.0 0.1
03:50 25.0 23.8 69.1 1019.1 0.6 WNW 3.5 NNW 0.0 0.1
03:55 24.9 23.5 69.6 1019.0 0.6 NE 3.2 SE 0.0 0.1
04:00 24.8 23.2 71.6 1019.0 5.2 ESE 6.7 ESE 0.0 0.1
04:05 24.7 23.0 72.9 1019.0 1.9 SSE 4.6 ESE 0.0 0.1
04:10 24.3 22.7 73.2 1019.1 3.1 WNW 5.3 WNW 0.0 0.1
04:15 24.0 22.5 74.7 1019.1 2.1 NW 5.3 NW 0.0 0.1
04:20 24.0 22.3 74.9 1019.1 1.5 NE 3.5 W 0.0 0.1
04:25 23.8 22.2 75.3 1019.0 0.7 N 3.2 N 0.0 0.1
04:30 23.7 22.1 75.2 1019.0 3.9 N 6.0 NNW 0.0 0.1
04:35 23.8 22.1 73.4 1019.0 2.1 NNW 5.3 WNW 0.0 0.1
04:40 23.8 22.1 73.7 1019.0 2.3 ENE 4.6 E 0.0 0.1
04:45 23.7 21.9 73.8 1019.0 1.1 ESE 3.5 ESE 0.0 0.1
04:50 23.6 21.8 72.0 1019.0 2.4 NNW 4.6 N 0.0 0.1
04:55 23.6 21.8 71.8 1018.9 1.2 WNW 4.2 NNW 0.0 0.1
05:00 23.6 21.7 72.4 1018.9 0.0 NNE 0.0 W 0.0 0.3
05:05 23.5 21.5 73.6 1018.9 0.0 NNE 0.0 W 0.0 0.8
05:10 23.6 21.3 73.6 1018.9 0.7 W 2.1 W 0.0 1.6
05:15 23.4 21.2 74.7 1018.9 1.0 W 2.8 W 0.0 2.9
05:20 23.4 21.2 75.4 1018.8 1.8 NE 3.2 NE 0.0 4.9
05:25 23.4 21.2 74.6 1018.8 2.2 NNE 3.5 NNE 0.0 7.2
05:30 23.5 21.3 73.6 1018.8 2.7 NE 4.2 NE 0.0 10.0
05:35 23.5 21.5 73.8 1018.9 0.8 SE 3.2 ESE 0.0 13.1
05:40 23.5 21.5 73.5 1018.9 0.0 NNE 0.0 SE 0.0 16.2
05:45 23.4 21.6 73.2 1018.9 0.1 NW 1.4 NW 0.0 19.4
05:50 23.6 21.8 73.0 1019.0 0.7 SSW 3.5 SSE 0.0 24.6
05:55 23.7 22.1 73.6 1019.1 0.8 SSE 3.2 S 0.0 25.7
06:00 23.7 22.3 74.1 1019.0 0.0 NNE 0.0 SE 0.0 38.6
06:05 23.7 22.6 74.9 1019.1 0.4 NNW 3.5 N 0.0 87.6
06:10 23.9 23.3 73.8 1019.1 3.2 NW 6.7 NW 0.0 100.6
06:15 24.2 24.4 73.4 1019.1 1.8 NNE 3.2 NNE 0.0 114.3
06:20 24.5 25.5 71.9 1019.1 2.1 N 2.8 NNE 0.0 127.3
06:25 24.9 26.7 71.1 1019.1 0.3 N 2.1 N 0.0 140.5
06:30 25.3 27.9 71.0 1019.2 2.3 SE 4.6 SE 0.0 153.8
06:35 25.6 28.9 69.8 1019.2 3.2 ESE 5.3 SE 0.0 167.4
06:40 25.9 29.7 68.4 1019.3 2.6 SSE 3.9 SSE 0.0 180.9
06:45 26.1 30.4 66.9 1019.3 1.6 SSE 4.2 SE 0.0 194.2
06:50 26.4 31.1 66.4 1019.3 2.5 SE 4.9 SSE 0.0 208.1
06:55 26.8 31.7 64.4 1019.3 3.0 SE 6.7 SSE 0.0 221.6
07:00 26.9 32.2 63.9 1019.4 4.6 SSE 6.4 SSE 0.0 234.7
07:05 26.8 32.5 64.3 1019.4 5.4 S 7.4 SSE 0.0 248.0
07:10 26.9 32.7 64.8 1019.4 3.8 SSE 7.1 S 0.0 262.3
07:15 27.0 32.8 64.5 1019.3 4.7 S 7.8 ESE 0.0 276.4
07:20 27.1 33.0 64.5 1019.3 3.6 SE 7.1 SE 0.0 290.5
07:25 27.3 33.3 65.1 1019.3 4.4 SSE 7.8 SSE 0.0 303.7
07:30 27.4 33.6 65.7 1019.4 4.4 SE 6.4 ENE 0.0 316.9
07:35 27.3 33.7 67.6 1019.5 5.3 SE 7.4 SSE 0.0 330.3
07:40 27.4 33.9 68.3 1019.5 4.4 SSE 8.5 SE 0.0 343.5
07:45 27.5 34.3 68.8 1019.4 4.8 SE 8.1 SE 0.0 356.9
Máxima 27.5 34.3 77.9 1020.4 18.3 NNW 27.2 NW 0.0 356.9
Mínima 20 20 63.9 1018.8
Total 0.0